Location: ?????
(54.9266°N, 38.5527°E)
Time: 20:10:04
(UTC+00:00)

deb REX - Pass Details

Date: 26 September 2024
Orbit: 705 x 731 km, 89.8° (Epoch: 09 October)

Event Time Altitude Azimuth Distance (km) Brightness Sun altitude
Rises 15:39:41 0° 199° (SSW) 3,129 ? -4.6°
Reaches altitude 10° 15:42:05 10° 207° (SSW) 2,209 ? -4.9°
Maximum altitude 15:46:43 41° 277° (W) 1,041 ? -5.6°
Drops below altitude 10° 15:51:21 10° 348° (NNW) 2,208 ? -6.3°
Sets 15:53:46 0° 356° (N) 3,128 ? -6.6°
